星链-4523 (STARLINK-4523 )

导读 | 星芒AI

STARLINK-4523 是 SpaceX Starlink 卫星互联网项目中的一颗低轨道卫星,属于第 21 批部署的 Starlink 群组。该卫星于 2022 年发射,旨在为全球提供高速互联网服务,特别是在网络基础设施薄弱的地区。它运行在约 550 公里的高度,采用先进的通信技术,支持低延迟和高带宽的数据传输。STARLINK-4523 与数千颗其他 Starlink 卫星共同构建了一个覆盖广泛的卫星网络,助力实现全球互联网接入目标。

基本信息
目录编号:
53389
目录名称:
STARLINK-4523
国际标识:
2022-097B
轨道中心:
EARTH
卫星名称:
星链-4523
卫星全名:
星链-4523 (STARLINK-4523 )
卫星状态:
在轨 (已飞行1229 天)
发射日期:
2022-08-10 UTC
国别 :
美国 (US)
星等 :
--
轨道信息
数据来源 国际轨道数据
星历时间: 2025-12-20T19:49:50+0800
20小时前
查看轨道信息
半长轴: 6917.885km
偏心率: 0.0001485
轨道倾角: 53.218°
近地点辐角 85.491°
升交点赤经 119.648°
平近点角 274.625°
近地点: 538.72km
远地点: 540.776km
周期: 95.438分钟
每日圈数: 15.088385
详细信息
固有亮度:
5
最大亮度:
2.5
卫星平台:
Starlink v1.5
覆盖范围:
全球
运营商:
太空探索技术公司
运营商所在国:
美国
制造商(研发单位):
太空探索技术公司
制造商所在国:
美国
使用方式:
暂无
卫星简介
星链(Starlink)计划是由太空探索技术公司(SpaceX)提出的一个巨型低轨卫星互联网星座项目,计划在2019年至2024年间在太空搭建由约1.2万颗卫星组成的“星链”网络,其中1584颗将部署在地球上空550千米处的近地轨道,并从2020年开始工作。该卫星仍在工作。
2D轨道图
3D轨道图
轨道高度分析图
轨道倾角分析图
轨道综合分析图
查看轨道综合分析图